Wind_Speed
13 13 12 12 13 12 11 9 8 8 8 8 8 7 9 12 16 17 18 19 21 18 18 18 18 17 17 17 17 16 17 19 19 19 18 16 15 14 15 15 14 14 14
13 11 11 12 12 12 11 9 7 6 6 8 8 9 8 14 16 16 19 20 19 18 19 18 19 19 17 16 16 17 19 18 19 17 16 15 15 15 16 15 15 15 13
13 12 12 13 13 12 10 9 7 5 4 6 8 9 10 12 14 15 16 17 19 18 18 17 16 16 17 17 16 17 17 17 16 15 13 15 17 17 16 15 15 14 15
12 12 12 12 12 10 10 9 7 6 4 4 7 9 10 11 12 14 15 16 17 17 17 16 16 16 16 16 15 17 15 17 15 15 15 17 17 16 15 15 15 16 15
12 12 12 12 12 10 10 10 8 6 5 5 6 9 10 13 14 14 15 16 15 15 16 16 16 14 14 15 15 17 15 20 18 14 16 16 15 14 15 15 15 14 15
11 11 11 12 11 10 12 12 11 8 7 8 8 10 12 13 14 15 15 16 17 14 11 17 16 16 15 15 17 17 15 16 15 14 15 15 14 14 15 14 13 14 14
11 11 11 12 12 13 15 15 14 12 10 10 10 12 12 13 15 15 16 16 17 17 21 16 15 16 16 17 17 15 13 15 12 14 14 14 15 15 14 13 13 14 16
11 11 11 12 13 13 15 16 17 16 13 11 11 12 12 14 14 15 16 18 19 22 21 17 15 16 16 16 16 13 13 13 13 13 13 14 14 14 13 13 14 17 19
11 11 11 12 12 13 15 15 16 16 15 13 12 10 11 13 14 15 16 18 19 18 16 16 16 14 15 14 14 13 13 13 13 14 13 15 16 16 16 17 19 21 22
10 12 11 11 11 12 13 16 16 16 14 13 12 11 9 13 13 15 16 18 17 16 15 15 15 13 14 13 12 14 14 15 14 16 17 21 22 23 23 24 24 23 21
10 11 12 11 12 10 10 14 17 17 15 13 14 17 18 16 15 16 16 16 15 14 15 14 12 13 13 13 12 14 15 16 17 22 25 26 27 27 27 25 23 21 20
10 12 10 11 12 11 8 10 16 17 15 13 14 17 18 16 14 16 15 14 14 14 13 12 13 11 11 13 13 15 18 17 23 25 27 28 26 26 25 23 22 22 21
8 9 9 13 13 11 8 9 14 18 15 15 14 16 16 15 15 13 13 11 11 10 13 11 13 12 12 15 15 18 19 20 23 26 26 25 25 25 25 25 25 23 23
7 6 8 11 9 8 16 12 12 17 14 16 17 17 15 14 13 12 9 8 9 8 12 12 11 12 15 16 18 22 21 22 24 24 24 25 25 25 26 25 26 27 28
6 4 9 6 8 18 13 13 14 15 11 16 18 17 14 14 12 11 9 8 10 8 10 11 13 15 17 20 22 22 22 24 25 23 23 25 25 25 25 26 28 29 28
3 5 7 12 20 11 15 14 15 13 11 17 15 16 15 15 13 12 11 10 10 13 14 17 16 14 18 23 24 22 22 23 24 24 22 23 23 25 27 28 28 28 27
3 3 5 12 14 13 16 18 19 11 12 14 14 16 16 16 15 14 17 14 11 15 16 17 19 17 21 24 24 21 20 22 22 23 22 21 23 25 27 28 27 27 27
3 4 6 9 13 14 14 18 16 14 12 11 14 12 15 16 15 17 21 20 14 14 16 19 20 21 21 21 23 20 20 19 20 20 21 21 25 25 25 26 26 26 26
5 2 5 5 9 13 11 11 15 14 15 15 14 11 14 17 17 17 19 22 19 17 17 21 21 22 20 18 20 21 21 16 18 19 20 22 25 23 22 24 24 23 24
7 5 6 5 7 11 10 11 12 12 13 14 13 13 15 16 18 17 16 19 20 22 21 20 20 19 18 17 18 19 22 16 17 17 21 20 21 21 18 21 22 20 22
8 7 7 6 7 9 11 10 12 13 12 12 13 14 14 15 17 17 16 16 17 19 19 21 18 16 15 15 14 14 19 18 16 19 21 18 20 17 15 17 17 17 19
10 7 8 7 6 10 9 8 12 11 11 10 13 14 14 16 17 17 17 16 16 16 14 15 17 15 15 14 10 9 12 16 17 18 20 17 20 15 15 13 14 14 14
12 9 8 7 6 7 8 6 8 10 9 10 10 11 13 15 15 14 15 14 13 14 13 11 11 13 12 11 15 8 6 12 16 17 20 19 18 16 14 12 13 9 12
15 12 8 8 8 7 9 7 6 5 8 7 8 10 12 13 15 13 13 13 11 11 12 11 10 10 10 7 9 13 10 11 15 17 18 17 18 14 14 11 9 9 9
16 16 13 10 9 9 11 12 7 5 7 5 6 6 9 10 12 13 11 10 12 11 11 13 12 12 9 8 5 3 8 11 10 14 13 17 18 13 12 11 8 7 6
17 16 15 13 9 8 7 11 9 5 6 5 5 6 8 9 10 9 11 10 9 11 11 9 11 10 9 6 10 7 7 7 11 10 8 7 12 12 10 9 6 4 4
Wind_Direction
85 82 82 86 89 89 89 92 95 99 104 96 90 100 90 97 81 76 84 94 94 98 96 96 98 95 94 94 95 94 91 87 86 84 82 80 79 75 72 68 70 70 67
88 84 88 87 85 81 82 86 89 99 113 117 110 111 110 98 89 82 84 92 89 95 96 96 94 91 90 89 88 84 80 82 81 78 80 79 78 77 77 71 69 63 61
87 85 83 88 88 81 73 69 71 79 105 125 125 118 118 91 90 89 91 96 102 98 93 93 96 95 96 94 92 88 90 87 86 80 77 81 80 76 70 68 63 62 61
80 89 91 91 82 66 56 55 69 88 115 138 130 121 105 103 89 87 87 89 94 95 96 96 97 97 96 94 92 90 92 92 83 79 83 80 80 75 71 66 66 61 58
69 75 84 77 69 55 52 68 75 96 109 127 130 119 100 99 100 94 88 88 88 95 102 99 99 100 93 89 83 84 82 84 82 86 87 84 77 74 69 65 63 59 54
70 78 78 69 59 61 71 67 73 75 95 126 130 121 110 104 106 99 92 85 87 88 119 104 100 104 98 90 85 80 84 81 82 87 86 82 78 69 65 64 61 55 50
74 79 74 62 60 68 70 75 74 76 84 108 119 117 109 101 104 101 95 91 92 94 109 113 101 99 99 100 93 83 80 80 76 78 77 75 69 63 63 64 59 53 52
83 77 70 65 72 76 76 74 80 80 81 89 104 109 110 107 111 107 104 99 97 101 120 102 100 95 97 93 87 79 70 67 67 70 72 73 68 66 68 66 62 60 62
86 84 74 77 84 87 82 80 83 85 89 93 95 101 112 115 117 113 110 107 108 107 108 105 100 98 94 93 91 84 77 72 74 76 75 70 71 73 73 71 69 71 71
88 86 81 90 89 89 92 95 93 88 89 89 92 86 113 123 119 118 110 112 110 111 108 123 107 105 99 88 82 78 73 78 81 79 76 78 78 78 79 79 78 77 73
86 85 88 94 95 97 87 95 102 95 86 92 93 87 97 112 117 114 111 111 110 107 107 111 108 106 103 95 82 82 88 82 87 87 86 84 83 83 82 81 80 75 69
90 83 105 95 102 101 103 106 106 102 97 93 97 98 95 103 108 114 115 115 120 117 116 117 117 116 107 97 93 95 88 94 94 92 89 86 85 82 79 76 75 72 70
89 101 98 102 99 89 106 126 110 103 100 96 102 101 103 108 112 109 114 116 116 121 120 130 123 118 116 105 103 96 99 99 95 91 90 89 84 81 80 77 75 74 73
116 98 98 103 72 109 106 121 113 104 105 105 106 102 106 109 107 107 101 109 111 129 142 135 126 119 111 111 105 108 103 98 93 93 91 85 85 84 81 79 79 79 78
72 64 84 94 124 88 105 117 105 107 120 116 111 105 100 93 95 97 94 97 111 140 130 128 123 126 132 116 107 104 104 101 96 89 87 90 87 87 85 83 82 80 79
77 65 82 77 83 97 100 113 93 109 134 125 114 107 99 95 91 91 98 108 112 115 112 111 123 124 124 113 111 109 106 104 99 93 90 90 91 91 88 85 83 82 81
119 119 54 81 85 88 86 83 92 111 131 128 110 107 99 98 96 87 80 87 92 113 112 121 131 124 119 113 111 112 109 105 99 99 94 95 95 91 91 88 85 86 82
151 107 59 48 79 77 86 84 134 100 122 144 115 106 101 97 94 87 83 89 88 95 117 120 115 114 110 112 114 114 108 103 100 99 102 102 99 92 91 89 89 87 83
156 154 104 64 66 84 83 91 99 115 113 129 125 115 108 108 101 93 90 92 94 95 101 106 112 113 116 117 112 112 107 103 102 101 106 108 100 95 95 94 92 89 85
170 179 136 108 89 99 98 93 100 107 110 108 125 120 112 113 112 106 99 99 102 107 108 109 109 116 120 118 119 122 114 111 105 106 103 105 105 99 98 97 95 92 87
178 179 153 137 124 110 100 93 99 107 129 121 126 117 114 116 114 117 113 106 109 110 110 103 107 110 117 119 118 123 122 122 122 113 108 112 104 105 103 98 101 96 86
172 176 169 163 140 118 115 113 103 97 105 119 123 125 117 113 120 127 127 123 121 115 117 119 117 121 123 125 105 119 125 131 122 122 119 119 112 119 110 112 100 91 89
175 171 182 181 144 129 117 101 73 86 89 103 119 128 131 125 119 123 126 134 141 133 133 123 128 121 116 131 121 110 121 138 128 126 124 121 119 114 119 120 104 108 85
182 171 181 191 166 164 139 112 100 108 102 97 115 137 139 136 130 127 129 127 132 145 149 139 129 121 118 127 138 142 150 153 144 134 131 125 129 127 135 126 117 98 81
191 183 187 184 194 186 155 140 146 128 124 110 110 122 128 135 133 129 128 132 129 126 134 139 142 138 135 138 118 152 138 119 129 130 135 140 137 140 140 139 130 100 74
199 196 196 192 191 199 184 156 166 172 113 132 142 133 133 127 132 133 133 137 138 136 135 135 137 139 139 133 132 140 100 119 126 123 135 133 133 136 139 138 126 115 79
Height
5893 5893 5894 5895 5894 5895 5896 5896 5897 5896 5896 5895 5895 5895 5895 5896 5896 5897 5898 5898 5899 5899 5900 5901 5903 5903 5903 5905 5906 5907 5908 5908 5909 5910 5911 5912 5913 5913 5913 5913 5913 5913 5914
5895 5896 5896 5896 5897 5897 5897 5898 5897 5898 5898 5899 5899 5899 5899 5899 5899 5900 5901 5902 5903 5904 5904 5904 5905 5905 5905 5906 5907 5908 5909 5911 5912 5913 5913 5914 5915 5915 5915 5915 5915 5916 5916
5896 5897 5898 5898 5898 5900 5900 5899 5899 5899 5899 5900 5902 5902 5902 5902 5903 5904 5905 5906 5906 5907 5907 5907 5909 5908 5909 5909 5910 5912 5913 5914 5915 5915 5917 5916 5916 5916 5916 5917 5917 5918 5918
5899 5899 5900 5900 5901 5901 5901 5900 5899 5899 5900 5901 5902 5904 5904 5904 5904 5906 5907 5908 5909 5909 5910 5911 5911 5912 5913 5914 5915 5915 5914 5915 5916 5917 5918 5918 5918 5919 5919 5920 5920 5920 5921
5901 5901 5901 5902 5903 5902 5901 5900 5900 5900 5900 5901 5903 5905 5905 5906 5908 5910 5910 5911 5911 5912 5912 5913 5914 5915 5916 5916 5916 5917 5917 5919 5919 5920 5919 5920 5920 5921 5921 5922 5923 5923 5923
5903 5903 5903 5903 5904 5903 5901 5900 5900 5900 5901 5902 5904 5906 5908 5908 5910 5911 5912 5912 5912 5913 5914 5915 5917 5918 5918 5919 5920 5920 5920 5920 5923 5923 5922 5922 5923 5924 5924 5925 5925 5925 5924
5904 5904 5905 5906 5906 5905 5904 5902 5902 5903 5903 5904 5906 5908 5909 5910 5912 5913 5914 5914 5914 5914 5916 5918 5919 5920 5921 5922 5923 5923 5924 5924 5925 5924 5925 5925 5926 5926 5927 5927 5927 5927 5926
5906 5907 5907 5907 5907 5908 5908 5906 5905 5906 5907 5908 5908 5909 5911 5912 5913 5915 5916 5916 5916 5917 5918 5920 5922 5923 5924 5924 5925 5926 5926 5927 5928 5927 5928 5927 5928 5929 5929 5928 5928 5928 5928
5909 5908 5909 5908 5907 5907 5909 5910 5910 5910 5910 5910 5911 5911 5912 5914 5915 5916 5917 5918 5919 5920 5922 5923 5924 5925 5926 5927 5928 5929 5930 5930 5930 5930 5930 5929 5929 5930 5930 5930 5930 5930 5930
5910 5908 5910 5909 5910 5910 5909 5910 5912 5913 5913 5913 5914 5914 5914 5915 5917 5918 5920 5921 5922 5923 5924 5925 5927 5927 5928 5929 5930 5931 5931 5932 5932 5932 5932 5932 5932 5932 5932 5932 5932 5933 5933
5909 5911 5911 5911 5912 5913 5914 5913 5912 5914 5917 5917 5916 5917 5917 5919 5920 5921 5923 5923 5924 5925 5927 5929 5930 5930 5931 5931 5933 5933 5934 5935 5935 5935 5935 5935 5935 5935 5936 5936 5936 5936 5936
5911 5913 5912 5914 5914 5915 5917 5918 5916 5915 5918 5920 5920 5920 5921 5923 5924 5924 5925 5925 5926 5927 5929 5929 5930 5931 5933 5935 5935 5936 5936 5939 5938 5937 5938 5938 5939 5939 5939 5939 5939 5939 5939
5912 5914 5913 5916 5919 5919 5919 5920 5919 5918 5920 5922 5923 5923 5924 5925 5926 5927 5926 5927 5929 5930 5930 5930 5931 5932 5934 5936 5938 5938 5940 5942 5941 5941 5941 5942 5942 5942 5943 5943 5942 5942 5942
5915 5916 5917 5918 5920 5920 5920 5923 5921 5919 5923 5924 5926 5926 5927 5928 5928 5928 5928 5929 5932 5932 5931 5933 5934 5936 5935 5938 5941 5942 5944 5944 5944 5945 5946 5946 5946 5947 5946 5946 5946 5946 5946
5917 5918 5920 5919 5921 5920 5925 5922 5922 5921 5926 5926 5928 5928 5930 5930 5931 5931 5930 5932 5933 5932 5936 5937 5937 5938 5939 5940 5942 5944 5946 5947 5948 5950 5950 5950 5951 5950 5950 5950 5950 5950 5950
5918 5919 5922 5923 5924 5927 5925 5925 5926 5927 5930 5929 5930 5932 5932 5932 5933 5933 5933 5933 5935 5937 5938 5938 5940 5943 5943 5942 5944 5948 5949 5951 5952 5953 5954 5954 5954 5954 5954 5954 5954 5954 5954
5919 5921 5920 5926 5925 5927 5926 5927 5927 5932 5934 5933 5934 5935 5936 5935 5935 5936 5937 5935 5935 5938 5939 5941 5943 5946 5946 5945 5948 5952 5954 5954 5956 5956 5958 5958 5958 5959 5958 5958 5959 5959 5958
5921 5921 5922 5922 5927 5926 5927 5929 5932 5936 5935 5937 5937 5938 5938 5938 5939 5940 5940 5940 5940 5940 5943 5946 5948 5949 5949 5951 5952 5955 5957 5959 5959 5960 5960 5961 5961 5963 5962 5962 5963 5964 5963
5923 5925 5927 5927 5928 5929 5929 5934 5936 5937 5936 5937 5939 5942 5941 5941 5943 5945 5944 5945 5945 5945 5945 5947 5949 5951 5953 5955 5957 5958 5960 5962 5962 5963 5964 5964 5964 5966 5967 5966 5967 5968 5967
5926 5928 5929 5931 5932 5933 5934 5935 5939 5939 5939 5940 5942 5942 5942 5944 5945 5947 5949 5949 5950 5950 5953 5954 5954 5955 5957 5959 5960 5960 5961 5964 5965 5967 5966 5968 5969 5969 5971 5970 5970 5971 5970
5928 5929 5930 5932 5934 5935 5937 5939 5939 5941 5943 5943 5944 5944 5944 5946 5946 5948 5951 5953 5954 5954 5956 5957 5958 5960 5961 5962 5963 5964 5962 5965 5967 5968 5968 5971 5971 5973 5974 5974 5974 5975 5973
5928 5930 5931 5932 5934 5937 5939 5941 5943 5943 5945 5946 5946 5947 5946 5948 5949 5949 5951 5955 5957 5957 5960 5960 5961 5962 5963 5965 5966 5966 5966 5967 5967 5968 5970 5973 5973 5976 5977 5978 5978 5978 5976
5928 5930 5931 5934 5936 5938 5938 5941 5943 5945 5946 5947 5947 5950 5949 5948 5949 5952 5953 5955 5958 5959 5961 5963 5964 5965 5965 5967 5966 5968 5969 5970 5970 5970 5970 5972 5975 5977 5979 5980 5981 5981 5979
5926 5929 5931 5934 5936 5937 5940 5942 5943 5945 5946 5949 5950 5950 5951 5951 5950 5953 5955 5956 5959 5961 5962 5963 5966 5966 5968 5968 5968 5969 5970 5970 5971 5973 5973 5974 5977 5979 5980 5982 5982 5982 5981
5924 5926 5929 5933 5935 5938 5939 5942 5944 5945 5947 5949 5950 5952 5952 5953 5953 5954 5957 5959 5959 5961 5964 5965 5966 5967 5969 5969 5972 5973 5972 5974 5975 5976 5978 5977 5976 5979 5981 5982 5984 5984 5984
5923 5926 5928 5932 5935 5939 5944 5945 5944 5947 5948 5949 5952 5954 5954 5954 5956 5956 5957 5960 5963 5963 5963 5966 5968 5968 5969 5970 5972 5974 5975 5977 5978 5979 5981 5983 5981 5981 5983 5985 5985 5985 5985